Location: Sweet Grass
(48.9965°N, 111.9649°W)
Time: 07:24:58
(UTC+00:00)

DIWATA 2B (PO-101) - Pass Details

Date: 03 April 2023
Orbit: 581 x 594 km, 98.0° (Epoch: 03 June)

Event Time Altitude Azimuth Distance (km) Brightness Sun altitude
Exits shadow 08:29:08 16° 49° (NE) 1,573 ? -34.3°
Drops below altitude 10° 08:31:03 10° 22° (NNE) 1,911 ? -34.2°
Sets 08:33:53 0° 1° (N) 2,818 ? -34.0°
